agen cbet

Jackpot

Texas Poker Multi Jackpot System

Kini Telah hadir Jackpot SUPER ROYAL FLUSH

Kini Telah hadir Jackpot 2000 (khusus table VIP keatas).

Ikutilah global jackpot yang tersedia di system kami, dengan system jackpot terbaru dan pertama di indonesia, anda dapat membeli jackpot dengan harga 100 rupiah saja dan menangkan hadiahnya hingga puluhan juta rupiah.

Jackpot bukanlah suatu keharusan untuk dibeli, namun kami memberikan suatu fitur tambahan untuk member tercinta dari www.klikkartu.com.

Terdapat tiga pilihan harga jackpot yang bisa anda beli yaitu :100,500,1000 dan 2000(khusus table VIP Keatas) rupiah.

Hadiah dari Multi jackpot system www.klikkartu.com

  1. full house x 10 harga jackpot yang anda beli.
      (contoh:anda membeli 1000 maka:1000 X10 = 10.000)
  2. four of kind x 250 harga jackpot yang anda beli
      (contoh:anda membeli 1000 maka:1000 X250 = 250.000)
  3. Straight flush x 1200
      (contoh:anda membeli 1000 maka:1000 X1200 = 1.200.000)
  4. Royal flush x 10000 harga jackpot yang anda beli
      (contoh:anda membeli 1000 maka:1000 X10000 = 10.000.000)
  5. SUPER ROYAL FLUSH x 30000 harga jackpot yang anda beli
      (contoh:anda membeli 1000 maka:1000 X30000 = 30.000.000)

Kondisi kartu

  1. full house adalah kondisi kartu dimana kartu anda dan kartu tengah dengan total 7 kartu bisa mendapatkan nilai 5 kartu dengan kombinasi 1 tris(three of kind) dan 1 pair, contoh 3 kartu 10 dan 2 kartu 5
  2. Four of kind adalah kondisi kartu dimana kartu anda dan kartu tengah dengan total 7 kartu bisa mendapatkan nilai 5 kartu dengan kombinasi 4 kartu yang sama jumlah dan 1 kartu apapun juga contoh anda mendapatkan 4 buah kartu angka 3 dan 1 kartu apapun.
  3. Staright flush adalah kondisi kartu dimana kartu anda dan kartu tengah dengan total 7 kartu bisa mendapatkan nilai 5 kartu dengan kombinasi seri / staright dengan kembang yang sama contoh : urutan kartu dari angka 5, 6, 7, 8 , 9 10 dengan kembang yg sama misalnya as hati
  4. Royal flush adalah kondisi kartu dimana kartu anda dan kartu tengah dengan total 7 kartu bisa mendapatkan nilai 5 kartu dengan kombinasi seri / staright dengan kembang yang sama tetapi kartu tersebut haruslah dimulai dari 10. contoh 10, Queen, Jack, King dan aces dengan kembang yang sama
  5. Super Royal flush adalah kondisi kartu dimana Kedua kartu anda digabung dengan 3 kartu pertama meja haruslah royal flush. contoh kartu anda 10,Queen kembang sama dan 3 kartu pertama meja adalah Jack, King dan aces dengan kembang yang sama

Demikian adalah penjelasan dari Multi Jackpot www.klikkartu.com terima kasih dan selamat bermain salam hoki dari kami

Texas Poker Jackpot Winner

TOP SUPER ROYAL FLUSH
No.TanggalNamaPriceWin
128/05 07:52SUGAR04Super Royal flush6,000,000
228/05 06:49YONO1103Super Royal flush6,000,000
328/05 06:30GORGOM999Super Royal flush6,000,000
428/05 05:29ISAPBOH123Super Royal flush6,000,000
528/05 01:19KOKOBEJO11Super Royal flush30,000,000
TOP ROYAL FLUSH
No.TanggalNamaPriceWin
128/05 09:59GOLAN88Royal flush2,000,000
228/05 09:13BADAY420Royal flush5,000,000
328/05 07:46SOSOH997Royal flush5,000,000
428/05 07:21M40DONKRoyal flush5,000,000
528/05 07:20BI2CJ1GWFKRoyal flush5,000,000
TOP STRAIGHT FLUSH
No.TanggalNamaPriceWin
128/05 09:59MIYABYStraight Flush600,000
228/05 09:54ARAFAT12Straight Flush240,000
328/05 09:52BREAK100Straight Flush1,200,000
428/05 09:49BOYJABTIGStraight Flush240,000
528/05 09:38ENDEREDY85Straight Flush240,000
LATEST JACKPOT
No.TanggalNamaPriceWin
128/05 10:04WAGOGEHFull House5,000
228/05 10:04YANS80Full House2,000
328/05 10:03PILIPH17Four Of A Kind25,000
428/05 10:03TIKTOK2108Full House5,000
528/05 10:03VICKO089Full House5,000
628/05 10:03PATRICSFull House5,000
728/05 10:03AR1XFull House20,000
828/05 10:03KESYAA999Full House2,000
928/05 10:03BERENG05Full House2,000
1028/05 10:03BOTOHKUFull House20,000
1128/05 10:03TUNJANGAN8Full House5,000
1228/05 10:03CI_IMUT99Full House2,000
1328/05 10:03DJMAOKKKFull House5,000
1428/05 10:03MUNTHE133Full House1,000
1528/05 10:03SADUWICAKFull House20,000
1628/05 10:03TOYUS233Full House10,000
1728/05 10:03JANDASEXY6Full House1,000
1828/05 10:03NTONG88Full House2,000
1928/05 10:03LOL9XFull House10,000
2028/05 10:03TORA898Full House2,000
2128/05 10:03SAMI_MAWONFull House500
2228/05 10:03A29ORN722Full House1,000
2328/05 10:03VYEFY2UNHQFull House5,000
2428/05 10:03GERHANA912Full House10,000
2528/05 10:03AX7HELLOFull House10,000
2628/05 10:03NAMTHAN123Full House20,000
2728/05 10:03PRAYIT99Full House5,000
2828/05 10:03HARAYU12Full House2,000
2928/05 10:03WATUBUBANFull House2,000
3028/05 10:03ALFATIH87Full House5,000
3128/05 10:03DANARFAUZIFull House2,000
3228/05 10:03MIKHAEL86Full House2,000
3328/05 10:03DESTINY69Full House5,000
3428/05 10:03DC0A2DBEFull House2,000
3528/05 10:03MODALRANTAFull House10,000
3628/05 10:03DESPA_SITOFull House10,000
3728/05 10:02BD_54H47Full House20,000
3828/05 10:02NEMOCUUFour Of A Kind25,000
3928/05 10:02EDMKSUMFCEFull House2,000
4028/05 10:02BONJOR313Full House5,000
4128/05 10:02DHUKUN22Full House2,000
4228/05 10:02AQUWA77Full House5,000
4328/05 10:02VUABAI888Full House10,000
4428/05 10:02SATELITFull House2,000
4528/05 10:02STEMPLET41Full House5,000
4628/05 10:02PLN133Full House5,000
4728/05 10:02BLO_ONSFull House5,000
4828/05 10:02VANIA36Full House5,000
4928/05 10:02BAHBANDIFour Of A Kind25,000
5028/05 10:02ANGPAOU888Full House10,000

Domino Multi Jackpot System

Ikutilah global jackpot yang tersedia di system kami, dengan system jackpot terbaru dan pertama di indonesia, anda dapat membeli jackpot dengan harga 100 rupiah saja dan menangkan hadiahnya hingga puluhan juta rupiah.

Jackpot bukanlah suatu keharusan untuk dibeli, namun kami memberikan suatu fitur tambahan untuk member tercinta dari www.klikkartu.com.

Terdapat tiga pilihan harga jackpot yang bisa anda beli yaitu :100,500 dan 1000 rupiah.

Hadiah dari Multi jackpot system www.klikkartu.com

  1. Murni Kecil x 50 harga jackpot yang anda beli.
      (contoh:anda membeli 1000 maka:1000 X 50 = 50.000)
  2. Murni Besar x 50 harga jackpot yang anda beli
      (contoh:anda membeli 1000 maka:1000 X 50 = 50.000)
  3. BALAK x 100 harga jackpot yang anda beli
      (contoh:anda membeli 1000 maka:1000 X 100 = 100.000)
  4. ENAM DEWA x 6666 harga jackpot yang anda beli
      (contoh:anda membeli 1000 maka:1000 X 6666 = 6.666.000)

Demikian adalah penjelasan dari Multi Jackpot www.klikkartu.com terima kasih dan selamat bermain salam hoki dari kami

Domino Jackpot Winner

TOP ENAM DEWA
No.TanggalNamaPriceWin
128/05 09:33OAACTG9VQ3murni enam6,666,000
228/05 06:37SILENCE90murni enam6,666,000
328/05 02:00FLIV6XYK0Lmurni enam6,666,000
428/05 01:44XF1JOFEE2Nmurni enam3,333,000
528/05 01:40SITAKAmurni enam3,333,000
TOP BALAK
No.TanggalNamaPriceWin
128/05 09:54SATIVAJOY0balak10,000
228/05 09:54INSIGNE9balak50,000
328/05 09:52AAMAND4balak50,000
428/05 09:45BASONG24balak10,000
528/05 09:31N4G4EM4Sbalak100,000
LATEST JACKPOT
No.TanggalNamaPriceWin
128/05 10:01JACK_KOR89murni besar50,000
228/05 09:59SADAMSmurni kecil50,000
328/05 09:57BOP2403murni besar5,000
428/05 09:56MAHES0586murni kecil50,000
528/05 09:56CANGDORmurni besar25,000
628/05 09:55BJGVKLZZ01lucky9950,000
728/05 09:54SATIVAJOY0balak10,000
828/05 09:54UBAYWAHYUmurni kecil50,000
928/05 09:54INSIGNE9balak50,000
1028/05 09:54BEREBUlucky992,500
1128/05 09:54PONGKROKmurni kecil5,000
1228/05 09:52R42426K9HJmurni besar25,000
1328/05 09:52AAMAND4balak50,000
1428/05 09:49MYTITLE1murni besar50,000
1528/05 09:48DIANTI80lucky992,500
1628/05 09:47X6X6X6murni kecil25,000
1728/05 09:46PUTRI2003murni besar5,000
1828/05 09:45BASONG24balak10,000
1928/05 09:45R42426K9HJmurni besar25,000
2028/05 09:44AAMAND4murni besar25,000
2128/05 09:42STYLE930lucky9910,000
2228/05 09:41SATRIAARZImurni besar50,000
2328/05 09:41UBAYWAHYUmurni kecil50,000
2428/05 09:38B0Z4D34Nmurni besar50,000
2528/05 09:34ADI8900murni kecil5,000
2628/05 09:33OAACTG9VQ3murni enam6,666,000
2728/05 09:31JOVI_Dmurni besar25,000
2828/05 09:31N4G4EM4Sbalak100,000
2928/05 09:30JONBUT22murni besar25,000
3028/05 09:30OAACTG9VQ3murni besar50,000
3128/05 09:29ANDHI06murni kecil5,000
3228/05 09:29KOKSUSAHmurni besar50,000
3328/05 09:27L914SJQ2PSbalak10,000
3428/05 09:24GOJEKTAImurni kecil5,000
3528/05 09:22HEASmurni besar50,000
3628/05 09:21INKHE08murni kecil50,000
3728/05 09:20FITRIBO46murni besar50,000
3828/05 09:17AB779murni kecil50,000
3928/05 09:16ZOOMVIDmurni kecil50,000
4028/05 09:15DAVIDBCAmurni kecil50,000
4128/05 09:15PINTARHOKImurni besar50,000
4228/05 09:12B4H412murni kecil50,000
4328/05 09:10JIMBO_CR7balak100,000
4428/05 09:09VIVOS1976murni besar50,000
4528/05 09:07ZB7M09V1S8murni besar50,000
4628/05 09:07WIZNHU90balak100,000
4728/05 09:06M45BI9murni besar50,000
4828/05 09:04PX37WWGUENmurni besar25,000
4928/05 09:00DODON94murni besar25,000
5028/05 08:59INKHE08murni besar50,000

Ceme Multi Jackpot System

Jackpot dilihat dari gabungan kartu pemain dengan kartu bandar. Bandar harus membeli jackpot sebanyak jumlah player yang sedang duduk. Sebagai contoh bila terdapat 3 pemain duduk bermain, dan bandar memutuskan untuk membeli jackpot Rp 1.000, maka pada periode tersebut bandar akan membeli jackpot sebanyak 3xRp1.000 = Rp3.000.

Jackpot bukanlah suatu keharusan untuk dibeli, namun kami memberikan suatu fitur tambahan untuk member tercinta dari www.klikkartu.com.

Terdapat tiga pilihan harga jackpot yang bisa anda beli yaitu :100,500 dan 1000 rupiah.

Hadiah dari Multi jackpot system www.klikkartu.com

  1. Murni Kecil x 50 harga jackpot yang anda beli.
      (contoh:anda membeli 1000 maka:1000 X 50 = 50.000)
  2. Murni Besar x 50 harga jackpot yang anda beli
      (contoh:anda membeli 1000 maka:1000 X 50 = 50.000)
  3. BALAK x 200 harga jackpot yang anda beli
      (contoh:anda membeli 1000 maka:1000 X 200 = 200.000)
  4. ENAM DEWA x 6666 harga jackpot yang anda beli
      (contoh:anda membeli 1000 maka:1000 X 6666 = 6.666.000)

Demikian adalah penjelasan dari Multi Jackpot www.klikkartu.com terima kasih dan selamat bermain salam hoki dari kami

Ceme Jackpot Winner

TOP ENAM DEWA
No.TanggalNamaPriceWin
128/05 09:21MATARU70murni enam3,333,000
228/05 09:19MADURESmurni enam6,666,000
328/05 09:19LB993298murni enam3,333,000
428/05 09:18BIGGB0153murni enam6,666,000
528/05 09:03SRUPUT008murni enam666,600
TOP BALAK
No.TanggalNamaPriceWin
128/05 10:03RICKYBOYZbalak200,000
228/05 10:03HENDRA277balak200,000
328/05 10:02PFLF33Q28Bbalak20,000
428/05 10:01ARCHER05balak200,000
528/05 10:01DAKYANIbalak100,000
LATEST JACKPOT
No.TanggalNamaPriceWin
128/05 10:04DODITOYAMmurni besar5,000
228/05 10:03SASTROW11murni kecil50,000
328/05 10:03LIKEABOSSSmurni kecil50,000
428/05 10:03CROSC3Kmurni kecil50,000
528/05 10:03RICKYBOYZbalak200,000
628/05 10:03HENDRA277balak200,000
728/05 10:02REXI11murni kecil50,000
828/05 10:02PARLANNHmurni kecil50,000
928/05 10:02AAKHAFFW44murni kecil50,000
1028/05 10:02PFLF33Q28Bbalak20,000
1128/05 10:02IJALBBKmurni kecil5,000
1228/05 10:02DWIYDmurni kecil25,000
1328/05 10:01ARCHER05balak200,000
1428/05 10:01AGOEST1978murni besar50,000
1528/05 10:01JOHER333murni kecil25,000
1628/05 10:01EDHO113murni kecil50,000
1728/05 10:01DAKYANIbalak100,000
1828/05 10:01YULI333balak200,000
1928/05 10:01HARTINI855murni besar50,000
2028/05 10:00REXI11murni kecil50,000
2128/05 10:00JP999ARLAbalak20,000
2228/05 10:00ZULFI868murni kecil25,000
2328/05 10:00DENICROOZ1murni besar5,000
2428/05 10:00IJALBBKmurni kecil5,000
2528/05 09:59MATARU70murni kecil25,000
2628/05 09:59HUNTERBSDmurni kecil25,000
2728/05 09:59LEONORELLEbalak100,000
2828/05 09:59CEMUS88murni besar50,000
2928/05 09:59HARTINI855murni kecil50,000
3028/05 09:59SOMIRANmurni kecil25,000
3128/05 09:59GENDURWO20balak200,000
3228/05 09:59A2995280murni kecil25,000
3328/05 09:59GL0B4LCSmurni kecil25,000
3428/05 09:59A2995280balak100,000
3528/05 09:59SASTROW11murni besar50,000
3628/05 09:59ALEX3009murni besar50,000
3728/05 09:58OPINKmurni kecil25,000
3828/05 09:58SRUPUT008murni kecil5,000
3928/05 09:58BIJE1982murni besar50,000
4028/05 09:58SASTROW11murni kecil50,000
4128/05 09:58OYIKK79murni kecil5,000
4228/05 09:58BULE2005murni kecil50,000
4328/05 09:57A2995280murni kecil25,000
4428/05 09:57ANNAS93murni kecil25,000
4528/05 09:57ANYOEmurni kecil50,000
4628/05 09:57LEMLEM88murni kecil50,000
4728/05 09:57BHILLA5555murni besar25,000
4828/05 09:57KOKOWAHmurni kecil50,000
4928/05 09:57TRXTRSmurni kecil25,000
5028/05 09:57LINPO323murni kecil50,000